Flag for Norway Weather past 2 weeks in Lillesand, Norway

Now
59 °F

Cool.


Feels Like: 60 °F
Forecast: 52 / 58 °F
Wind: 3 mph from East

Location: Kristiansand / Kjevik

Current Time: Sep 30, 2014 at 4:54:09 PM

Latest Report: Sep 30, 2014 at 4:00 PM


Visibility: N/A

Pressure: 30.29 "Hg

Humidity: 66%

Dew point: 48 °F

Location of LillesandLocation

Historic Weather in Lillesand — Graph

°F

Lillesand temperature yesterday

Maximum temperature yesterday: 67 °F (at 4:00 PM)
Minimum temperature yesterday: 48 °F (at 11:00 PM)
Average temperature yesterday: 58 °F

Past Weeks' High & Low Weather Summary

 TemperatureHumidityPressure
High69 °F (Sep 21, 3:00 PM)99% (Sep 26, 1:00 AM)30.37 "Hg (Sep 26, 1:00 AM)
Low39 °F (Sep 22, 7:00 AM)28% (Sep 22, 5:00 PM)29.62 "Hg (Sep 25, 2:00 AM)
Average55 °F76%30.02 "Hg
* Reported Sep 15 3:00 PM — Sep 30 3:00 PM, Lillesand, Weather by CustomWeather, © 2014

Note: Actual official high and low records may vary slightly from our data, if they occured in-between our weather recording intervals... More about our weather records

Advertising

Lillesand weather history for previous 24 hours

 ConditionsComfort  
Time TempWeatherWind HumidityBarometerVisibility
3:00 PM
Sep 30
59 °FCool.5 mph65%30.30 "HgN/A
2:00 PM59 °FCool.5 mph71%30.30 "HgN/A
1:00 PM59 °FCool.7 mph71%30.30 "HgN/A
12:00 PM59 °FCool.5 mph74%30.29 "HgN/A
11:00 AM58 °FCool.5 mph74%30.28 "HgN/A
10:00 AM53 °FCool.6 mph81%30.27 "HgN/A
9:00 AM51 °FCool.6 mph84%30.26 "HgN/A
8:00 AM50 °FCool.5 mph88%30.25 "HgN/A
7:00 AM49 °FCool.5 mph88%30.24 "HgN/A
6:00 AM48 °FCool.5 mph90%30.24 "HgN/A
5:00 AM46 °FCool.1 mph89%30.24 "HgN/A
4:00 AM46 °FCool.2 mph88%30.23 "HgN/A
3:00 AM44 °FQuite cool.2 mph93%30.22 "HgN/A
2:00 AM44 °FQuite cool.2 mph93%30.22 "HgN/A
1:00 AM45 °FCool.3 mph93%30.22 "HgN/A
12:00 AM47 °FCool.2 mph93%30.21 "HgN/A
11:00 PM
Sep 29
48 °FCool.3 mph93%30.20 "HgN/A
10:00 PM48 °FCool.3 mph94%30.19 "HgN/A
9:00 PM50 °FCool.2 mph91%30.18 "HgN/A
8:00 PM54 °FCool.2 mph86%30.17 "HgN/A
7:00 PM60 °FCool.3 mph75%30.16 "HgN/A
6:00 PM64 °FMild.3 mph62%30.15 "HgN/A
5:00 PM67 °FMild.1 mph56%30.14 "HgN/A
4:00 PM67 °FMild.3 mph42%30.14 "HgN/A
Weather by CustomWeather, © 2014

See weather overviewHow to use our weather pages